Location: Kutna Hora
(49.9500°N, 15.2670°E)
Time: 08:22:58
(UTC+02:00)

ISS - Pass Details

Date: 01 April 2019
Orbit: 408 x 410 km, 51.6° (Epoch: 22 April)

Event Time Altitude Azimuth Distance (km) Brightness Sun altitude
Rises 20:09:57 0° 280° (W) 2,339 2.5 -7.1°
Reaches altitude 10° 20:12:03 10° 283° (WNW) 1,477 0.8 -7.4°
Maximum altitude 20:15:20 66° 6° (N) 453 -3.6 -7.9°
Enters shadow 20:18:32 11° 89° (E) 1,434 -1.7 -8.4°
